QUI SOM?

ITER5 és una empresa especialitzada en el cronometratge i gestió esportiva. Ens adrecem a les institucions públiques i privades, als clubs i associacions esportives per tal de proporcionar els nostres coneixements i recursos.

INFORMACIÓ
  • Complex la Caparrella. Ed. CEEI. 2.7 - 25192 - LLEIDA
  • Lat.: 41.599045 | Long.: 0.581511
  • 635-164-197 / 654-555-394
  • info@iter5.cat

Resultats Xallenge Duaigües - Almatret - Llarga - Edició 2018

Pos. Dorsal Nom T.Oficial
1 21 IVAN CALVÓ VIGARA 01:51:38
2 187 VICTOR ALFONSO BIGORRA 01:51:53
3 4 JOAN ALONSO MOR 01:53:00
4 53 DANIEL LEBRON ESTRELLA 01:53:33
5 201 PERE ESQUÉ YÁÑEZ 01:53:40
6 197 JORDI CAYETANO PUERTAS 01:53:51
7 205 JAVIER GIMENEZ 01:55:18
8 200 XAVIER DOMENECH AMADES 01:56:56
9 215 DANI LOUREIRO 01:57:29
10 192 EDGAR ARANEGA MARTORELL 01:57:46
11 72 ROBERT PEDROSA SOLÀ 01:58:08
12 188 JOSEP ALGUERO QUERAL 02:00:01
13 18 JORDI BERTOMEU COLOMINES 02:00:15
14 216 RUBÉN MARÍN RUZAFA 02:01:27
15 199 DANI DIAZ CARULLA 02:01:34
16 44 JURIC GIMENEZ ESQUERRE 02:02:14
17 81 CARLES PUJOL LONCÀ 02:02:22
18 86 XAVI SÀNCHEZ MOLINA 02:02:39
19 97 ARTEMIO ZAPATER SERRANO 02:02:40
20 65 DANI MOLINA GARCIA 02:03:07
21 38 JOSE MARI FLORES MONTULL 02:03:15
22 257 JAVIER BAGUE GARI 02:03:40
23 73 MIQUEL PEIRÓ CARDET 02:04:23
24 32 ALEX ESTEVE BERNAUS 02:04:50
25 207 JOSEP GORRES SALVADÓ 02:04:57
26 27 DAVID CORNADO ROCA 02:05:34
27 302 DIEGO MORENO ALPUENTE 02:06:13
28 159 MANU PEDREGOSA GONZALEZ 02:06:13
29 8 ORIOL BALAGUE ROYO 02:06:26
30 157 DAVID PARDO GARCÍA 02:06:39
31 235 GUILLE SASETA SECALL 02:06:40
32 50 TONI JOVE TOMAS 02:06:47
33 313 NANO ROMIA JOVÉ 02:07:59
34 94 ROBERT VISA MIR 02:08:25
35 520 CRISTOBAL TORRALBO ESTORACH 02:08:26
36 232 CRISTIAN SALDAÑA ROCAMORA 02:09:18
37 274 RUBEN ESTEVE ALVAREZ 02:10:00
38 51 VICENTE LABAILA NAVARRO 02:10:32
39 308 JAVIER PLAZA ROBLEDILLO 02:10:37
40 262 DANIEL BELTRÁN CASTELLNOU 02:10:41
41 76 JEREMIES PLA BOIX 02:10:45
42 142 JORDI LÓPEZ PADILLA 02:10:50
43 231 ERIC SABATA TO 02:11:10
44 229 GERARD RODRIGUEZ ESCODA 02:11:16
45 29 GERARD DESCARREGA DE LA VEGA 02:12:41
46 69 JOAN CARLES OMS ARTAL 02:14:11
47 34 JORDI FARGUES GIMENO 02:14:11
48 288 FRANCISCO GUARDIA SEGARRA 02:14:54
49 190 JORDI AMENOS SANTIVERI 02:15:22
50 89 MARIO SOLE ALBI 02:15:30
51 15 MARC BENITO BLANCH 02:15:58
52 228 JORDI RIERA FLORES 02:15:59
53 58 CESAR LUENGO BAEZA 02:17:13
54 78 IGNACIO PONZ FONTANET 02:17:14
55 59 PEPE LUENGO BAEZA 02:17:15
56 524 JORGE PACUAL CABALLERO 02:17:15
57 204 CARLES GENE GIRON 02:18:21
58 189 DÍDAC ALONSO MOR 02:18:22
59 42 LLUÍS GARCIA SUBIRATS 02:18:34
60 513 NEBAT GARGALLO TOMÀS 02:18:44
61 71 EDUARD PALAU BORREGUERO 02:19:25
62 186 EDU VEGA CALVERES 02:19:25
63 87 JEREMY SANCHEZ MORALES 02:19:28
64 152 SERGIO MONTULL PERALTA 02:20:28
65 91 JORDI TEMPORAL BASSA 02:21:33
66 516 ALBERTO RODRIGUEZ RODRIGUEZ 02:23:23
67 28 FELIPE CORTÉS PURIFICACIÓN 02:24:10
68 7 VÍCTOR ATARÉS PUEYO 02:25:44
69 203 XAVIER FERRAN AGUSTÍ 02:26:06
70 323 GUERAU SERENTILL TEXIDÓ 02:26:06
71 246 JORDI ALBÀ TEIXIDÓ 02:26:11
72 506 SALVADOR FERNANDEZ FABREGA 02:26:14
73 227 CARLOS RAIGAL GISTAU 02:27:11
74 23 ANDREU CARAVACA FERNANDEZ 02:27:21
75 55 CARLES LLAGOSTERA CASAS 02:27:33
76 17 VICTOR BERGA ABELLA 02:27:45
77 163 JORDI PUJOL ABELLA 02:28:43
78 264 GILBERT BORRÀS GÓMEZ 02:29:08
79 238 FELIX SIRACH VEGA 02:29:28
80 510 CARLOS RUBIO RUBIO 02:29:36
81 99 XAVI AGUILAR NAVARRO 02:30:40
82 511 JUAN GULLÉM MARTINEZ 02:31:28
83 327 ROGER SURRIBAS CUSO 02:31:31
84 127 PERE ESTEVE TUNICA 02:31:43
85 183 VICENÇ TRIQUELL DOMEYO 02:33:01
86 212 SERGI LLEDÓ MUÑOZ 02:33:01
87 280 ALBERT FLORENSA TARRAGÓ 02:33:37
88 10 DAVID BARBECHO GRIMALDOS 02:34:14
89 305 JORDI PALENCIA PRATS 02:34:18
90 503 JOEL FAURA GARCIA 02:34:43
91 196 FERRAN CALVET BENITO 02:35:04
92 318 OSCAR SANMARTIN ZARAGOZA 02:35:09
93 145 FRANCISCO JAVIER MARTINEZ GARCIA 02:36:46
94 125 JOSEP CIVIT ORO 02:38:07
95 223 JORDI PLANES VILLA 02:38:30
96 37 MARTA FILLAT FUENTES 02:38:51
97 48 JULIAN HERRANZ DELGADO 02:38:53
98 214 IGNACIO LOPEZ LORENZO 02:39:12
99 170 JOAN ROIG SERRA 02:40:03
100 13 RUBEN BELTRAN MAUREL 02:40:07
101 14 ROBERTO BELTRAN MAUREL 02:40:08
102 293 KIKO LÓPEZ LUQUE 02:40:10
103 56 JOSEP LOMBARDO PERIES 02:41:10
104 267 MARC CAPARRÓS BONET 02:41:10
105 117 JOAN JOSEP CALLAU GAVARRO 02:41:31
106 226 ADRIA PUCHE MAURIN 02:41:32
107 112 HARRY BARRAGÁN 02:41:46
108 315 DIEGO RUIZ JIMÉNEZ 02:41:55
109 166 IVÁN REVILLA GARCÍA 02:43:18
110 314 RICARDO ROYO LEON 02:44:10
111 256 ROBERT BAGÉS VICENTE 02:44:13
112 213 JOSEP LLUÍS LÓPEZ AGUILA 02:45:44
113 236 ANGEL SASETA SECALL 02:45:46
114 132 GENSANA TALARN GENSANA TALARN 02:46:08
115 263 JOSEP BLANCH PALOU 02:46:08
116 67 VÍCTOR ELOY MUÑOZ PACHECO 02:47:10
117 508 IGNACIO RODRIGUEZ PUENTE 02:47:11
118 514 RAMON GARRIGOSA CANTÓ 02:47:26
119 35 J.CARLOS FAVA SANS 02:47:41
120 155 JOEL NAVARRO CABRERA 02:47:41
121 116 VICTOR CAIRÓ TORRES 02:47:46
122 319 PACO SANTACANA PINO 02:48:36
123 332 XAVIER VILASECA PUEYO 02:48:47
124 249 EDU ALEGRE FORNELLS 02:48:47
125 149 SEBASTIÁN MÉNDEZ ALONSO 02:48:54
126 331 JAVI VALERA NAVARRO 02:49:02
127 61 ENRIC MARGALEF PALLARÉS 02:49:46
128 60 DAVID MARGALEF PALLARES 02:49:47
129 129 JESÚS FILELLA CACHO 02:50:07
130 180 XAVIER RAMON TEIXIDÓ VALLÉS 02:50:17
131 106 RICARD BAGES ESTOPA 02:50:56
132 111 RAÜL BARÓ CORTIELLA 02:51:43
133 110 DELFIN BARO CORTIELLA 02:51:43
134 160 CIRNU PETRONEL GIGEL 02:51:56
135 168 XAVIER ROCA SIRERA 02:52:01
136 330 ALEXIS TORRES GODIA 02:52:29
137 40 SANTIAGO GARCIA CASTERAS 02:52:56
138 57 IVAN LORENTE ALBANCHEL 02:53:14
139 121 ALBERT CASTELLNOU ROCA 02:53:34
140 147 JOSEP MATEU CEBRIÀ 02:53:34
141 175 LUIS SERRANO JURADO 02:53:39
142 306 JOSEP PERERA IBAÑEZ 02:54:10
143 52 ALEJANDRO LAFUENTE IBARZ 02:55:14
144 134 ISMAEL GROS VIDAL 02:56:49
145 137 ALBERT GUIU CASTELLÓ 02:56:49
146 138 RUBEN IBAÑEZ BERNAL 02:56:58
147 312 JOSEP ROMERO IBARS 02:57:44
148 66 SEBASTIÀ MORELL PRATS 02:57:50
149 209 JUAN JUAN AIXA 02:58:06
150 270 VICTOR CORBELLA PUCH 02:58:39
151 316 SANDRA SALVADOR JOVANÍ 03:00:17
152 502 RICARD BORDALBA FARRÉ 03:00:18
153 11 JORDI BARBERA PONS 03:00:23
154 133 KIKO GRIÑÓ CASTELLÓ 03:00:36
155 279 CARMELO FERNANDEZ RAMOS 03:00:37
156 300 SERGI MONFA 03:03:39
157 251 MANUEL ANDREU GARCIA 03:04:19
158 240 MIKI VALL PERMIQUEL 03:05:54
159 150 JORDI MOIX GIRÓ 03:06:14
160 135 DAVID GROS VIDAL 03:06:15
161 151 FRANCESC MOLINS SERRANO 03:06:19
162 202 DIVINA FARRENY JUSTRIBÓ 03:06:48
163 33 ENRIC EZQUERRA ESPIN 03:08:00
164 47 SANTIAGO GUARDIA GUIU 03:08:57
165 244 DAVID ALARCÓN GONZÁLEZ 03:08:57
166 185 JAUME VALLS BOLDÚ 03:09:21
167 179 RAMON TALARN BERGÓ 03:09:22
168 156 MARIO NOVIALS FERRER 03:09:23
169 307 EMILIO PLANELLA ALLUE 03:09:56
170 321 RAMON MARIA SECANELL SOLE 03:11:34
171 43 ALBERT GENE ESCUER 03:11:35
172 16 JOSÉ MANUEL BERENGUER ANDRÉS 03:11:38
173 122 JORDI CASTELLNOU ROCA 03:11:39
174 254 JUAN MA ARIBAU BERENGUER 03:12:52
175 74 JOSEP ROGELIO PENAS CASALS 03:13:23
176 63 ANGEL MENDEZ AIONSO 03:14:12
177 277 YAGO FAURA FERNANDEZ 03:14:34
178 507 JESUS FRAUCA FABREGA 03:14:54
179 54 TONI LIÑAN LOPEZ 03:16:10
180 148 CARLOS MELER BROSED 03:16:11
181 90 JOAQUIM SOLE SELLART 03:16:49
182 154 JAUME NADAL ANDREU 03:17:30
183 153 JOSEP MORROS TORRES 03:17:31
184 218 ROGER MONTAGUT PLANA 03:17:46
185 20 FERRAN BRULL LLEÓ 03:18:17
186 19 EMILIO BODRO CABALLÉ 03:18:48
187 83 SERGI ROCAMORA GOMIS 03:18:48
188 12 ALEX BATALLA RUBIO 03:18:49
189 220 JUAN ANTONIO NAVARRO MOYANO 03:18:59
190 194 JORGE ARROYO DOMÍNGUEZ 03:19:00
191 191 ISMAEL ANTEQUERA MASIP 03:22:25
192 287 POL GORT CARRERA 03:22:25
193 120 DAVID CANALES ROYES 03:23:30
194 119 ALEX CANALES GARCIA 03:23:31
195 260 RAMON BARRULL 03:25:33
196 245 JOSEP ALBÀ TEIXIDÓ 03:27:54
197 105 NATALIA BADIA 03:27:54
198 298 ALBERT MODOL TEIXIDÓ 03:27:55
199 80 JOSEP MARIA PUJOL BALASCH 03:27:55
200 276 SERGI ESTRUGA DUPLÀ 03:27:55
201 165 GERARD RANDO FARRE 03:29:11
202 210 FERNANDO JUAN APARICIO 03:30:51
203 182 DAVID TORRÉN VERGE 03:30:51
204 234 MIQUEL SANCHO MONTAÑES 03:30:54
205 320 ORIOL SANTAULÀRIA ARBONÉS 03:31:03
206 284 ALBERT GENSANA SENDER 03:31:04
207 521 JOAN SERRAL GOMBAL 03:32:05
208 107 JOSEPM BAIGES MARTINEZ 03:32:07
209 173 ALBERT SENTÍS PIÑOL 03:32:11
210 219 RAMON MONTESO GALLEGO 03:32:16
211 141 JOAN LLAÓ CURTO 03:33:59
212 296 JOSEP MARSAL MARTI 03:33:59
213 178 ALBERT SUECA CALLAU 03:35:59
214 46 TONI GRASA SERRADO 03:37:05
215 517 JOSEP RAMON MARSOL FUSTER 03:38:05
216 144 JOSEP M MARTÍ BOYER 03:38:12
217 291 HECTOR JOVE TOMAS 03:38:43
218 283 ALBERT GARRA ORONICH 03:44:29
219 525 DENIS JORNET BALSEBRE 03:45:33
220 322 VÍCTOR XAVIER SEGURA ARESTÉ 03:45:34
221 247 HECTOR RUANA PASCUAL 03:45:34
222 114 RAMON BITRIA CASADO 03:45:34
223 286 FRANCISCO GONZALEZ CASANOVA 03:48:16
224 128 JOSEP FABRA CURTO 03:48:54
225 269 SANTI CERVERA BLANCH 03:48:55
226 282 RUBEN GARCIA SEGURA 03:48:57
227 224 GERARD PLAZA TEIXIDÓ 03:48:57
228 136 CARLOS GUIRAL GALLINAD 03:49:00
229 103 ELOI ALVAREZ LALANA 03:49:29
230 104 ERIC ÁLVAREZ LALANA 03:49:29
231 118 XAVIER CALVO LALANA 03:49:29
232 206 MARC GINOVART FUSTER 03:51:56
233 266 MARTA CAMÍ MOR 03:51:57
234 233 GERARD SALVADO BOTELLA 03:51:57
235 222 EDUARD PASCUAL GINOVART 03:51:58
236 3 JOEL ADAN MIARNAU 03:55:18
237 248 MIGUEL ANGEL ALDANA ESTEBAN 03:57:38
238 253 OSCAR ARAN ORTÍN 03:58:12
239 268 CRISTIAN CATALA BLAY 03:58:13
240 131 JOSE GARCIA MARTOS 03:58:17
241 68 JORDI NAVARRO SUÑE 04:00:14
242 297 QUIM MELCHOR GIMENEZ 04:00:15
243 299 JORDI MOLLÓ MARSAL 04:00:57
244 527 ROBERT MORENO CALDERÓ 04:01:24
245 526 MIQUEL BERNARDO VALERO 04:01:25
246 126 JUAN CLAVERO VIDAL 04:04:46